Flag for U.S.A. Weather past 2 weeks in Roanoke, Virginia, U.S.A.

Now
80 °F

Broken clouds.


Feels Like: 82 °F
Forecast: 68 / 82 °F
Wind: 12 mph from West

Location: Roanoke Regional Airport

Current Time: Jul 4, 2015 at 1:07:19 PM

Latest Report: Jul 4, 2015 at 11:54 AM


Visibility: 10 mi

Pressure: 29.95 "Hg

Humidity: 62%

Dew point: 66 °F

Location of RoanokeLocation

Historic Weather in Roanoke — Graph

°F

Roanoke temperature yesterday

Maximum temperature yesterday: 69 °F (at 12:54 AM)
Minimum temperature yesterday: 68 °F (at 4:54 AM)
Average temperature yesterday: 68 °F

Past Weeks' High & Low Weather Summary

 TemperatureHumidityPressure
High92 °F (Jun 23, 4:54 PM)100% (Jun 27, 3:01 AM)30.12 "Hg (Jun 27, 3:01 AM)
Low56 °F (Jun 29, 5:54 AM)33% (Jun 24, 2:54 PM)29.73 "Hg (Jun 27, 5:54 PM)
Average75 °F71%29.95 "Hg
* Reported Jun 19 11:54 AM — Jul 4 11:54 AM, Roanoke, Weather by CustomWeather, © 2015

Note: Actual official high and low records may vary slightly from our data, if they occured in-between our weather recording intervals... More about our weather records

Advertising

Roanoke weather history for previous 24 hours

 ConditionsComfort  
Time TempWeatherWind HumidityBarometerVisibility
11:54 AM
Sat, Jul 4
80 °FBroken clouds.12 mph62%29.95 "Hg10 mi
10:54 AM76 °FBroken clouds.9 mph77%29.95 "Hg10 mi
9:54 AM74 °FBroken clouds.8 mph82%29.94 "Hg10 mi
8:54 AM72 °FPartly sunny.7 mph87%29.95 "Hg10 mi
7:59 AM69 °FFog.5 mph96%29.97 "Hg5 mi
6:54 AM67 °FFog.3 mph100%29.93 "Hg2 mi
5:54 AM67 °FLight rain. Fog.3 mph100%29.93 "Hg3 mi
4:54 AM68 °FFog.No wind96%29.91 "Hg5 mi
3:54 AM68 °FFog.No wind96%29.91 "Hg4 mi
2:54 AM68 °FFog.No wind96%29.91 "Hg3 mi
1:54 AM68 °FFog.No wind96%29.92 "Hg5 mi
12:54 AM68 °FFog.No wind96%29.93 "Hg4 mi
12:01 AM68 °FLight rain. Fog.No wind96%29.97 "Hg3 mi
10:54 PM
Fri, Jul 3
68 °FLight rain. Fog.No wind96%29.95 "Hg3 mi
9:54 PM68 °FLight rain. Fog.3 mph96%29.93 "Hg2 mi
8:54 PM68 °FFog.No wind96%29.93 "Hg3 mi
7:54 PM68 °FFog.5 mph96%29.92 "Hg2 mi
6:54 PM68 °FLight rain. Fog.3 mph93%29.93 "Hg5 mi
5:54 PM69 °FFog.6 mph90%29.93 "Hg4 mi
4:54 PM69 °FLight rain. Fog.6 mph90%29.93 "Hg4 mi
3:54 PM69 °FFog.5 mph90%29.94 "Hg6 mi
2:54 PM68 °FFog.6 mph93%29.96 "Hg5 mi
1:54 PM69 °FOvercast.5 mph84%29.97 "Hg7 mi
Weather by CustomWeather, © 2015

See weather overviewHow to use our weather pages